Back to catalog

STARLINK-35180

AliveCommunicationsVLEO
NORAD 65462·PAYLOAD·🇺🇸 United States

Launched Sep 3, 2025 from Cape Canaveral Space Force Station

Loading…

Next Passes (next 24 hours)

TLE

FreshSource: CelesTrak SupGP

Epoch: Sep 14, 2026, 15:26 UTC

1 65462C 25195E   26257.64354167 -.00013261  00000+0 -39163-3 0  2579
2 65462  53.1575  96.9680 0001195  97.9143 251.5737 15.34411742    11

Track STARLINK-35180 in real time with AllMySat

Download on the App Store